This is the latest recevied weather packets stored in our database for station/object I2HLY-4. If no packets are shown the sender has not sent any weather packets the latest 1 day(s).
| Time | Temp. | Humidity | Pressure | Rain* | Wind** | Luminosity | Snow |
|---|---|---|---|---|---|---|---|
| 1777990638 | 8.33° C | 95% | 1014.2 hPa | 0 mm | 0.45 m/s, 164° | - | - |
| 1777989739 | 8.89° C | 95% | 1014.2 hPa | 0 mm | 0.89 m/s, 193° | - | - |
| 1777988839 | 8.89° C | 95% | 1014.1 hPa | 0 mm | 0.89 m/s, 213° | - | - |
| 1777987943 | 8.89° C | 95% | 1014.2 hPa | 0 mm | 0 m/s | - | - |
| 1777987044 | 8.89° C | 95% | 1014.3 hPa | 0 mm | 0 m/s | - | - |
| 1777986142 | 8.89° C | 95% | 1014.2 hPa | 0 mm | 0 m/s | - | - |
| 1777985246 | 8.33° C | 95% | 1014.3 hPa | 1.02 mm | 0 m/s | - | - |
| 1777984346 | 8.33° C | 95% | 1014.5 hPa | 1.02 mm | 0 m/s | - | - |
| 1777983451 | 8.33° C | 95% | 1014.6 hPa | 2.03 mm | 0.45 m/s, 213° | - | - |
| 1777982531 | 8.33° C | 95% | 1014.5 hPa | 2.03 mm | 0.45 m/s, 262° | - | - |
| 1777981632 | 8.33° C | 94% | 1014.5 hPa | 1.02 mm | 0.45 m/s, 196° | - | - |
| 1777980736 | 8.89° C | 94% | 1014.4 hPa | 2.03 mm | 0.45 m/s, 178° | - | - |
| 1777979836 | 8.89° C | 93% | 1014.6 hPa | 1.02 mm | 0 m/s | - | - |
| 1777978939 | 8.89° C | 93% | 1014.5 hPa | 1.02 mm | 0 m/s | - | - |
| 1777978042 | 8.89° C | 92% | 1014.4 hPa | 1.02 mm | 0.45 m/s, 169° | - | - |
| 1777977143 | 8.89° C | 93% | 1014.5 hPa | 2.03 mm | 0 m/s | - | - |
| 1777976249 | 8.89° C | 92% | 1014.6 hPa | 2.03 mm | 0.45 m/s, 194° | - | - |
| 1777975331 | 8.89° C | 88% | 1014.4 hPa | 3.05 mm | 0.89 m/s, 52° | - | - |
| 1777974435 | 8.89° C | 88% | 1014.2 hPa | 5.08 mm | 1.79 m/s, 53° | - | - |
| 1777973536 | 8.33° C | 88% | 1014.2 hPa | 6.1 mm | 2.24 m/s, 355° | - | - |
| 1777972635 | 8.33° C | 89% | 1014.2 hPa | 11.94 mm | 2.68 m/s, 46° | - | - |
| 1777971737 | 8.33° C | 89% | 1014.3 hPa | 12.95 mm | 3.58 m/s, 20° | - | - |
| 1777970837 | 8.33° C | 91% | 1014.3 hPa | 12.95 mm | 0.45 m/s, 83° | - | - |
| 1777969939 | 8.33° C | 92% | 1014.4 hPa | 11.94 mm | 2.68 m/s, 26° | - | - |
| 1777969039 | 8.33° C | 93% | 1014.7 hPa | 7.11 mm | 0 m/s | - | - |
* Rain latest hour (hover to see other rain measurements)
** Current wind speed in m/s (hover to see current wind gust speed)